GW5754 Weather Reports


time (UTC)temp
F
wind
direction
speed
knots
gust
knots
rain 1hr
in
rain 24hr
in
rain mn
in
humidity
%
barometer
mb
20260505153115 54 248 1.7 1.7 0.00 0.00 0.00 94 1023.0
20260505152616 54 270 0.0 0.9 0.00 0.00 0.00 94 1023.0
20260505152116 53 45 0.0 0.9 0.00 0.00 0.00 94 1023.0
20260505151615 53 113 0.0 0.0 0.00 0.00 0.00 95 1023.0
20260505151114 53 180 0.0 0.0 0.00 0.00 0.00 95 1023.0
20260505150615 53 293 0.0 0.0 0.00 0.00 0.00 95 1023.0
20260505150115 53 293 0.0 0.9 0.00 0.00 0.00 95 1023.0
20260505140614 52 315 0.9 1.7 0.00 0.00 0.00 96 1022.0
20260505140115 52 293 0.0 0.9 0.00 0.00 0.00 96 1023.0
20260505130114 52 270 1.7 1.7 0.00 0.00 0.00 96 1022.0
20260505124615 52 23 0.0 0.0 0.00 0.00 0.00 96 1022.0
20260505124114 52 23 0.0 0.9 0.00 0.00 0.00 95 1022.0
20260505123615 52 315 0.9 1.7 0.00 0.00 0.00 95 1022.0
20260505123114 52 315 0.9 1.7 0.00 0.00 0.00 95 1022.0
20260505122615 52 270 0.0 0.9 0.00 0.00 0.00 96 1022.0
20260505122115 52 270 0.0 0.9 0.00 0.00 0.00 96 1022.0
20260505121615 52 225 0.9 1.7 0.00 0.00 0.00 96 1022.0
20260505121115 52 203 0.0 0.0 0.00 0.00 0.00 96 1022.0
20260505120615 52 315 1.7 1.7 0.00 0.00 0.00 96 1022.0
20260505120114 52 248 0.0 0.0 0.00 0.00 0.00 96 1022.0
20260505115617 52 293 0.0 0.9 0.00 0.00 0.00 96 1022.0
20260505115115 52 293 0.0 0.9 0.00 0.00 0.00 96 1022.0
20260505114615 52 270 0.0 0.9 0.00 0.00 0.00 96 1022.0
20260505114115 52 225 0.9 1.7 0.00 0.00 0.00 95 1022.0
20260505113614 52 270 0.0 0.9 0.00 0.00 0.00 95 1022.0
20260505113115 52 293 0.9 1.7 0.00 0.00 0.00 95 1022.0
20260505112614 52 225 0.0 0.9 0.00 0.00 0.00 95 1022.0
20260505112115 52 270 0.9 1.7 0.00 0.00 0.00 94 1022.0
20260505111614 53 203 0.9 1.7 0.00 0.00 0.00 94 1022.0
20260505111115 53 293 0.0 0.9 0.00 0.00 0.00 94 1022.0
20260505110615 53 248 0.9 1.7 0.00 0.00 0.00 94 1022.0
20260505110114 53 270 0.0 0.0 0.00 0.00 0.00 93 1022.0
20260505102115 52 135 0.0 0.9 0.00 0.00 0.00 93 1022.0
20260505101614 53 203 0.0 0.9 0.00 0.00 0.00 92 1022.0
20260505101115 53 90 0.0 0.0 0.00 0.00 0.00 92 1022.0
20260505100615 53 225 0.0 0.0 0.00 0.00 0.00 92 1022.0
20260505100114 53 68 0.0 0.0 0.00 0.00 0.00 91 1021.0
20260505095614 53 338 0.0 0.9 0.00 0.00 0.00 91 1021.0
20260505095114 53 135 0.0 0.0 0.00 0.00 0.00 91 1022.0
20260505094614 53 225 0.0 0.9 0.00 0.00 0.00 91 1022.0
20260505094115 53 270 0.0 0.0 0.00 0.00 0.00 91 1021.0
20260505093614 53 293 0.0 0.9 0.00 0.00 0.00 91 1021.0
20260505093114 53 270 0.0 0.9 0.00 0.00 0.00 91 1021.0
20260505092614 53 293 0.0 0.9 0.00 0.00 0.00 91 1021.0
20260505092114 53 248 0.0 0.9 0.00 0.00 0.00 91 1021.0
20260505091614 53 270 0.0 0.9 0.00 0.00 0.00 91 1021.0
20260505091114 53 90 0.0 0.0 0.00 0.00 0.00 91 1021.0
20260505090615 53 113 0.0 0.0 0.00 0.00 0.00 92 1021.0
20260505090115 52 113 0.0 0.0 0.00 0.00 0.00 92 1021.0
20260505085614 52 113 0.0 0.0 0.00 0.00 0.00 92 1021.0
20260505085115 52 90 0.0 0.0 0.00 0.00 0.00 92 1021.0
20260505084614 52 180 0.0 0.0 0.00 0.00 0.00 92 1021.0
20260505084114 52 113 0.0 0.0 0.00 0.00 0.00 92 1021.0
20260505083615 52 90 0.0 0.0 0.00 0.00 0.00 92 1021.0
20260505083114 52 270 0.0 0.0 0.00 0.00 0.00 92 1021.0
20260505082614 52 225 0.0 0.0 0.00 0.00 0.00 93 1021.0
20260505082115 52 158 0.0 0.0 0.00 0.00 0.00 93 1021.0
20260505081614 52 135 0.0 0.0 0.00 0.00 0.00 94 1021.0
20260505081114 51 315 0.0 0.0 0.00 0.00 0.00 94 1021.0
20260505080616 51 135 0.0 0.0 0.00 0.00 0.00 94 1021.0
20260505080115 51 135 0.0 0.9 0.00 0.00 0.00 95 1021.0
20260505075616 51 135 0.0 0.0 0.00 0.00 0.00 95 1021.0
20260505075114 51 90 0.0 0.0 0.00 0.00 0.00 95 1021.0
20260505074614 51 113 0.0 0.0 0.00 0.00 0.00 94 1021.0
20260505074115 51 248 0.0 0.0 0.00 0.00 0.00 94 1021.0
20260505073614 51 180 0.9 1.7 0.00 0.00 0.00 95 1021.0
20260505073115 51 135 0.0 0.0 0.00 0.00 0.00 94 1021.0
20260505072615 51 135 0.0 0.0 0.00 0.00 0.00 93 1021.0
20260505072115 51 158 0.0 0.0 0.00 0.00 0.00 93 1021.0
20260505071614 52 203 0.0 0.0 0.00 0.00 0.00 93 1021.0
20260505071117 52 225 0.0 0.0 0.00 0.00 0.00 92 1021.0
20260505070615 53 90 0.0 0.0 0.00 0.00 0.00 92 1021.0
20260505070114 53 113 0.0 0.0 0.00 0.00 0.00 92 1021.0
20260505065614 53 248 0.0 0.0 0.00 0.00 0.00 91 1021.0
20260505065114 53 270 0.0 0.9 0.00 0.00 0.00 91 1021.0
20260505064614 53 68 0.0 0.0 0.00 0.00 0.00 91 1021.0
20260505064114 53 90 0.0 0.0 0.00 0.00 0.00 90 1021.0
20260505063614 54 248 1.7 1.7 0.00 0.00 0.00 90 1021.0
20260505063114 54 90 0.0 0.0 0.00 0.00 0.00 89 1020.0
20260505062615 54 90 0.0 0.0 0.00 0.00 0.00 88 1020.0
20260505062114 55 23 0.0 0.0 0.00 0.00 0.00 87 1020.0
20260505061614 55 203 0.0 0.0 0.00 0.00 0.00 87 1020.0
20260505061115 55 338 0.0 0.0 0.00 0.00 0.00 86 1020.0
20260505060616 56 248 0.9 1.7 0.00 0.00 0.00 85 1020.0
20260505060115 56 248 1.7 2.6 0.00 0.00 0.00 85 1020.0
20260505055614 56 248 1.7 1.7 0.00 0.00 0.00 85 1020.0
20260505055115 56 248 0.9 1.7 0.00 0.00 0.00 85 1020.0
20260505054614 56 248 0.0 0.9 0.00 0.00 0.00 85 1020.0
20260505054114 56 248 0.0 0.9 0.00 0.00 0.00 84 1020.0
20260505053614 57 248 0.0 0.0 0.00 0.00 0.00 83 1020.0
20260505053115 57 135 0.0 0.0 0.00 0.00 0.00 83 1020.0
20260505052614 57 203 0.0 0.9 0.00 0.00 0.00 82 1020.0
20260505052115 57 248 0.9 1.7 0.00 0.00 0.00 81 1020.0
20260505051615 58 270 1.7 1.7 0.00 0.00 0.00 81 1020.0
20260505051115 57 248 1.7 1.7 0.00 0.00 0.00 82 1020.0
20260505050614 57 270 0.9 1.7 0.00 0.00 0.00 81 1020.0
20260505050114 57 225 0.0 0.9 0.00 0.00 0.00 79 1020.0
20260505041614 62 315 0.9 0.9 0.00 0.00 0.00 68 1019.0
20260505041115 62 248 0.9 1.7 0.00 0.00 0.00 67 1019.0
20260505040614 62 248 1.7 1.7 0.00 0.00 0.00 66 1019.0
20260505040114 63 270 0.9 1.7 0.00 0.00 0.00 63 1019.0
20260505035614 63 270 2.6 2.6 0.00 0.00 0.00 61 1019.0
20260505035114 64 248 0.9 1.7 0.00 0.00 0.00 60 1019.0
20260505034614 65 180 0.9 1.7 0.00 0.00 0.00 57 1019.0
20260505034114 65 225 1.7 1.7 0.00 0.00 0.00 55 1019.0
20260505033614 65 293 2.6 3.5 0.00 0.00 0.00 54 1019.0
20260505033114 66 293 2.6 3.5 0.00 0.00 0.00 54 1019.0
20260505032614 66 270 2.6 4.3 0.00 0.00 0.00 54 1019.0
20260505032114 66 315 2.6 3.5 0.00 0.00 0.00 53 1019.0
20260505031614 66 270 3.5 4.3 0.00 0.00 0.00 53 1018.0
20260505031115 67 0 2.6 3.5 0.00 0.00 0.00 52 1019.0
20260505030614 67 293 1.7 1.7 0.00 0.00 0.00 53 1018.0
20260505030115 68 293 4.3 6.1 0.00 0.00 0.00 52 1018.0
20260505025614 68 293 4.3 5.2 0.00 0.00 0.00 51 1018.0
20260505025115 69 293 2.6 5.2 0.00 0.00 0.00 49 1018.0
20260505024614 70 293 2.6 3.5 0.00 0.00 0.00 48 1018.0
20260505024114 70 338 4.3 6.1 0.00 0.00 0.00 47 1018.0
20260505023615 71 270 2.6 4.3 0.00 0.00 0.00 46 1018.0
20260505023115 71 293 2.6 2.6 0.00 0.00 0.00 45 1018.0
20260505022615 71 315 4.3 6.1 0.00 0.00 0.00 44 1018.0
20260505022115 71 270 2.6 5.2 0.00 0.00 0.00 44 1017.0
20260505021616 72 293 4.3 5.2 0.00 0.00 0.00 43 1018.0
20260505021114 72 270 2.6 4.3 0.00 0.00 0.00 42 1018.0
20260505020614 73 270 4.3 5.2 0.00 0.00 0.00 41 1018.0
20260505020115 73 270 2.6 3.5 0.00 0.00 0.00 40 1018.0
20260505015614 74 225 3.5 5.2 0.00 0.00 0.00 39 1018.0
20260505015115 74 293 4.3 4.3 0.00 0.00 0.00 39 1018.0
20260505014615 75 180 2.6 2.6 0.00 0.00 0.00 37 1018.0
20260505014116 75 270 7.8 8.7 0.00 0.00 0.00 38 1018.0
20260505013616 76 293 2.6 5.2 0.00 0.00 0.00 40 1018.0
20260505013114 76 45 0.9 1.7 0.00 0.00 0.00 43 1018.0
20260505012614 76 248 6.1 7.8 0.00 0.00 0.00 42 1018.0
20260505012115 77 315 0.9 1.7 0.00 0.00 0.00 44 1018.0
20260505011616 77 180 1.7 1.7 0.00 0.00 0.00 46 1018.0
20260504193114 71 248 1.7 1.7 0.00 0.00 0.00 56 1019.0
20260504192615 71 315 1.7 2.6 0.00 0.00 0.00 55 1019.0
20260504192114 71 248 6.1 7.0 0.00 0.00 0.00 54 1019.0
20260504191614 70 270 3.5 3.5 0.00 0.00 0.00 59 1020.0
20260504191115 71 293 3.5 6.1 0.00 0.00 0.00 56 1019.0
20260504190615 71 293 0.9 1.7 0.00 0.00 0.00 58 1019.0
20260504190114 71 225 4.3 5.2 0.00 0.00 0.00 60 1020.0
20260504185615 70 45 0.9 3.5 0.00 0.00 0.00 60 1020.0
20260504185114 70 248 1.7 3.5 0.00 0.00 0.00 60 1020.0
20260504184614 71 135 1.7 1.7 0.00 0.00 0.00 59 1020.0
20260504184115 69 90 1.7 2.6 0.00 0.00 0.00 61 1020.0
20260504183614 70 248 0.9 1.7 0.00 0.00 0.00 62 1020.0
20260504183114 69 338 1.7 2.6 0.00 0.00 0.00 63 1020.0
20260504182615 68 293 1.7 4.3 0.00 0.00 0.00 64 1020.0
20260504182114 69 315 3.5 4.3 0.00 0.00 0.00 62 1020.0
20260504181614 68 270 4.3 5.2 0.00 0.00 0.00 64 1020.0
20260504181114 68 338 0.9 1.7 0.00 0.00 0.00 65 1020.0
20260504180615 69 248 2.6 3.5 0.00 0.00 0.00 63 1020.0
20260504180115 67 225 0.0 0.9 0.00 0.00 0.00 66 1020.0
20260504175614 67 270 3.5 4.3 0.00 0.00 0.00 65 1020.0
20260504175115 67 270 4.3 5.2 0.00 0.00 0.00 65 1020.0
20260504174615 66 225 2.6 3.5 0.00 0.00 0.00 66 1020.0
20260504174115 68 90 0.9 1.7 0.00 0.00 0.00 63 1020.0
20260504173615 67 158 0.0 0.0 0.00 0.00 0.00 65 1020.0
20260504173115 67 270 2.6 3.5 0.00 0.00 0.00 64 1020.0
20260504172614 68 180 0.9 1.7 0.00 0.00 0.00 60 1020.0
20260504172115 67 338 1.7 2.6 0.00 0.00 0.00 61 1020.0
20260504171614 67 338 1.7 1.7 0.00 0.00 0.00 64 1019.0
20260504171114 67 225 1.7 1.7 0.00 0.00 0.00 62 1020.0
20260504170615 66 68 2.6 3.5 0.00 0.00 0.00 62 1019.0
20260504170115 66 180 2.6 4.3 0.00 0.00 0.00 62 1020.0
20260504160115 62 23 1.7 1.7 0.00 0.00 0.00 71 1019.0